Hourly Data Report for September 17, 2017

All times are specified in Local Standard Time (LST). Add 1 hour to adjust for Daylight Saving Time where and when it is observed.

POND INLET A
NUNAVUT

72°41'22.000" N
77°58'08.000" W
61.60 m
2403206
71095
YIO

Download Data

Hourly Data (September 2017)
Hourly Data Report for September 17, 2017
Temp Definition
°C
Dew Point Temp Definition
°C
Rel Hum Definition
%
Wind Dir Definition
10's deg

Wind Spd Definition
km/h
Visibility Definition
km
Stn Press Definition
kPa
Hmdx Definition


Wind Chill Definition


Weather Definition


TIME
00:00 Legend Double Dagger -3.4 -7.3 75 LegendMM LegendMM LegendMM 100.51     LegendNANA
01:00 Legend Double Dagger -4.2 -7.2 80 LegendMM LegendMM LegendMM 100.51     LegendNANA
02:00 Legend Double Dagger -4.8 -7.7 80 19 22 16.1 100.54   -12 LegendNANA
03:00 Legend Double Dagger -3.7 -6.5 81 21 21 16.1 100.54   -10 LegendNANA
04:00 Legend Double Dagger -3.9 -6.2 84 18 21 16.1 100.54   -10 LegendNANA
05:00 Legend Double Dagger -3.8 -6.3 83 21 21 16.1 100.52   -10 LegendNANA
06:00 Legend Double Dagger -4.3 -6.5 85 18 18 16.1 100.52   -10 LegendNANA
07:00 Legend Double Dagger -2.9 -5.9 80 20 17 16.1 100.52   -8 LegendNANA
08:00 Legend Double Dagger -2.4 -6.3 75 20 17 16.1 100.52   -8 LegendNANA
09:00 Legend Double Dagger -1.5 -6.2 71 21 17 16.1 100.51   -7 LegendNANA
10:00 Legend Double Dagger -0.9 -5.9 69 21 18 16.1 100.50   -6 LegendNANA
11:00 Legend Double Dagger -0.6 -5.8 68 23 18 16.1 100.49   -6 LegendNANA
12:00 Legend Double Dagger -0.2 -5.3 69 27 11 16.1 100.51   -4 LegendNANA
13:00 Legend Double Dagger 0.8 -4.9 66 28 11 16.1 100.52     LegendNANA
14:00 Legend Double Dagger 1.6 -4.7 63 30 8 16.1 100.54     LegendNANA
15:00 Legend Double Dagger 0.1 -5.5 66 LegendMM 4 16.1 100.55     LegendNANA
16:00 Legend Double Dagger -0.4 -5.6 68   0 16.1 100.54     LegendNANA
17:00 Legend Double Dagger -0.7 -5.3 71 7 8 16.1 100.50   -4 LegendNANA
18:00 Legend Double Dagger -1.0 -5.8 70 6 5 16.1 100.44   -3 LegendNANA
19:00 Legend Double Dagger -1.0 -5.1 74 11 5 16.1 100.40   -3 LegendNANA
20:00 Legend Double Dagger -1.8 -3.2 90 7 5 2.0 100.36   -4 Snow
21:00 Legend Double Dagger -2.2 -3.0 94 6 5 2.8 100.32   -4 Snow
22:00 Legend Double Dagger -2.2 -2.9 95 6 4 12.9 100.26   -4 Snow
23:00 Legend Double Dagger -2.0 -2.6 96 5 8 4.8 100.22   -5 Snow

Notes on Data Quality.

Legend

  • E = Estimated
  • M = Missing
  • NA = Not Available
  • ‡ = Partner data that is not subject to review by the National Climate Archives
Date modified: